Location: Unspecified
(49.2170°N, 0.0000°E)
Time: 10:26:37
(UTC+00:00)

Vanguard 3 - Pass Details

Date: 04 July 2019
Orbit: 507 x 3264 km, 33.4° (Epoch: 18 July)

Event Time Altitude Azimuth Distance (km) Brightness Sun altitude
Rises 12:31:38 0° 270° (W) 6,796 11.9 63.1°
Reaches altitude 10° 12:37:39 10° 260° (W) 5,391 11.6 62.9°
Maximum altitude 12:48:35 25° 214° (SW) 3,326 11.3 62.3°
Drops below altitude 10° 12:56:05 10° 163° (SSE) 3,578 10.9 61.8°
Sets 12:59:08 0° 150° (SSE) 4,185 11.0 61.5°
